{"data":{"norad_id":52860,"epoch":"2026-09-20T03:29:20.774112Z","epoch_age_seconds":99473,"freshness":"FRESH","line1":"1 52860U 22062AG  26263.14537933  .00001422  00000+0  51666-4 0  9993","line2":"2 52860  53.1592 219.0782 0001162  91.9095 268.2041 15.35393544235443","mean_motion":15.35393544,"eccentricity":0.0001162,"inclination_deg":53.1592,"raan_deg":219.0782,"arg_perigee_deg":91.9095,"mean_anomaly_deg":268.2041,"bstar":5.1666e-5,"rev_number":23544,"period_min":93.787029757108,"perigee_km":458.95724789644,"apogee_km":460.54637325601,"semimajor_km":6837.8888105762,"source":"CELESTRAK","updated_at":"2026-09-20T09:00:40.116895Z"}}